World > North America > United States > Texas

Hourly Satsuma, TX Regional Weather

Feedback E-mail the Weather

Quick WX

Satsuma, TX Weather Maps

°F °C°F °C
Satsuma Weather Map
UTC Time: 7/6/2022, 04:56
Your Time:

Satsuma, TX Regional Weather

Expires:202207060500;;764221
ASUS44 KSJT 060415
RWRSJT
WEST CENTRAL TEXAS REGIONAL WEATHER ROUNDUP
NATIONAL WEATHER SERVICE SAN ANGELO TX
1100 PM CDT TUE JUL 05 2022

NOTE: "FAIR" INDICATES FEW OR NO CLOUDS BELOW 12,000 FEET WITH NO
SIGNIFICANT WEATHER AND/OR OBSTRUCTIONS TO VISIBILITY.


TXZ163-177-195>197-199-213-226-237-060500-
SOUTHEAST TEXAS
  
CITY           SKY/WX    TMP DP  RH WIND       PRES   REMARKS
COLLEGE STN    CLEAR     89  71  55 S15       29.96R                  
CALDWELL       CLEAR     86  69  55 S12G17    29.97R                  
CROCKETT       CLEAR     84  75  74 S7        29.95R                  
BRENHAM        CLEAR     86  73  64 S10G17    29.98R                  
HUNTSVILLE     CLEAR     88  72  58 S9        29.96R                  
CONROE         CLEAR     83  73  72 S7        29.98R                  
HOUSTON BUSH   PTCLDY    84  74  71 S7        29.97R                  
HOUSTON HOBBY  PTCLDY    83  76  79 S9        29.97R                  
PERLAND        PTCLDY    82  76  81 S3        29.99R                  
WHARTON        CLEAR     78  73  84 S5        29.99R                  
$$


SKY/WX - Weather  TMP - Temperature  DP - Dew Point  RH - Humidity
WIND - Wind Direction/Speed PRES - Barometric Pressure VSB - Visibility
WCI - Wind Chill Index E13G22 Wind - East Wind 13 mph/Gusts of 22 mph

Trending Headlines

Satsuma Radar Loop



Satsuma Quick Facts


National Two Day Weather Forecast


E-mail the Satsuma Weather Forecast

Voice your opinion or tell us about page issues...